Regional Weather Roundup
Issued by NWS

Home | Current Version | Previous Version | Text Only | Print | Product List | Glossary On
Versions: 1 2 3 4 5 6 7 8 9 10 11 12 13 14 15 16 17 18 19 20 21 22 23 24 25 26 27 28 29 30 31 32 33 34 35 36 37 38 39 40 41 42 43 44 45 46 47 48 49 50
000
ASCA42 TJSJ 160911
RWRPR
PUERTO RICO/U.S. VIRGIN ISLANDS HOURLY WEATHER ROUNDUP
NATIONAL WEATHER SERVICE SAN JUAN PR
500 AM AST TUE SEP 16 2014

PRZ001-004-161000-
PUERTO RICO

CITY           SKY/WX    TMP DP  RH WIND       PRES   REMARKS
SAN JUAN LMM   PTCLDY    79  75  89 CALM      29.97R
PONCE          PTCLDY    72  70  94 CALM      29.94F
CEIBA          PTCLDY    75  73  94 CALM      29.99R
$$

PRZ006-007-161000-
U.S. VIRGIN ISLANDS

CITY           SKY/WX    TMP DP  RH WIND       PRES   REMARKS
CHRISTIANSTED  CLEAR     75  73  94 NE5       29.97S
$$

HOURLY WEATHER ROUNDUP FOR THE NEWS MEDIA

CITY           SKY/WX    TMP DP  RH WIND       PRES   REMARKS
MIAMI          PTCLDY    79  74  84 CALM      30.06S
ORLANDO        PTCLDY    78  73  84 CALM      30.08F
NEW YORK       CLOUDY    63  55  75 SW9       30.04F
NEWARK         MOCLDY    59  53  80 CALM      30.02F
CHICAGO        CLEAR     47  44  90 W5        30.19R
HARTFORD       CLOUDY    48  47  96 CALM      30.04F
BOSTON         CLOUDY    56  49  77 S5        30.05S
DALLAS         MOCLDY    77  70  79 NE3       30.10F
PHILADELPHIA   CLOUDY    62  55  77 E3        30.00F



USA.gov is the U.S. government's official web portal to all federal, state and local government web resources and services.